Location: *
(58.7167°N, 26.1833°E)
Time: 20:42:24
(UTC+00:00)

Cosmos 1271 Rocket - Visible Passes

Search period start: 08 December 2019 00:00
Search period end: 18 December 2019 00:00
Orbit: 499 x 546 km, 81.2° (Epoch: 07 December)

Date Brightness Start Highest point End Pass type
(mag) Time Alt. Az. Time Alt. Az. Time Alt. Az.
14 Dec 5.1 05:58:19 10° NNE 06:00:41 16° NE 06:03:03 10° E visible
15 Dec 5.2 05:45:27 10° NNE 05:47:40 15° NE 05:49:51 10° E visible
16 Dec 5.3 05:32:37 10° NNE 05:34:38 14° NE 05:36:37 10° E visible
17 Dec 5.3 05:19:48 10° NNE 05:21:36 13° NE 05:23:22 10° ENE visible
